Regional Weather Roundup
Issued by NWS

Home | Current Version | Previous Version | Text Only | Print | Product List | Glossary Off
Versions: 1 2 3 4 5 6 7 8 9 10 11 12 13 14 15 16 17 18 19 20 21 22 23 24 25 26 27 28 29 30 31 32 33 34 35 36 37 38 39 40 41 42 43 44 45 46 47 48 49 50

098
ASUS45 KABQ 220201
RWRNM
NEW MEXICO REGIONAL WEATHER ROUNDUP
NATIONAL WEATHER SERVICE ALBUQUERQUE NM
800 PM MDT FRI JUL 21 2017

NOTE: "FAIR" MEANS FEW OR NO CLOUDS BELOW 12,000 FEET AGL WITH NO
       SIGNIFICANT WEATHER OR OBSTRUCTIONS TO VISION.

      THIS PRODUCT IS RELEASED AS TWO VERSIONS.  ONE VERSION NEAR
      THE TOP OF THE HOUR CONTAINING PRELIMINARY DATA FROM ALBUQUERQUE
      AND OTHER STATIONS.  A FINAL VERSION WITH ADDITIONAL DATA IS
      ISSUED ABOUT 10 MINUTES AFTER THE HOUR.

NMZ501-503-504-510>518-220300-
NORTHWEST PLATEAU/NORTHCENTRAL MOUNTAINS

CITY           SKY/WX    TMP DP  RH WIND       PRES   REMARKS
FARMINGTON     MOCLDY    69  60  73 W7        30.12R
LOS ALAMOS     FAIR      82  38  21 SW9       30.21R
SANTA FE       MOCLDY    82  50  32 SW14G21   30.13R THUNDER
TAOS           FAIR      75  46  35 E6        30.21R
ANGEL FIRE     FAIR      65  49  54 CALM      30.32R

$$
NMZ402-403-502-505>509-220300-
WESTCENTRAL MOUNTAINS/SOUTHWEST MOUNTAINS

CITY           SKY/WX    TMP DP  RH WIND       PRES   REMARKS
GALLUP         MOCLDY    70  56  61 W5        30.19S
GRANTS         MOCLDY    73  52  47 SW17G23   30.20R
SILVER CITY    FAIR      72  62  71 E5        30.16R

$$
NMZ407-409-411-412-220300-
SOUTHERN DESERTS

CITY           SKY/WX    TMP DP  RH WIND       PRES   REMARKS
DEMING         FAIR      75  64  68 W7        30.09R
LAS CRUCES     HVY RAIN  68  64  87 SE10      30.11R
HOLLOMAN AFB   FAIR      83  60  45 SW18G25   30.06R
ALAMOGORDO     FAIR      82  52  34 S14       30.05R
T OR C         FAIR      80  54  40 W10       30.08R

$$
NMZ519>523-220300-
CENTRAL VALLEYS/CENTRAL HIGHLANDS

CITY           SKY/WX    TMP DP  RH WIND       PRES   REMARKS
ALBUQUERQUE    FAIR      85  53  33 SW17G26   30.08R
DOUBLE EAGLE   PTCLDY    82  52  34 S16       30.12R
MORIARTY ARPT  FAIR      80  51  36 S10       30.16R
CLINES CORNERS FAIR      75  49  39 SW14      30.22R
BELEN          NOT AVBL
SOCORRO        FAIR      81  53  37 SE10      30.07R

$$
NMZ524>526-539-540-220300-
SOUTHCENTRAL MOUNTAINS

CITY           SKY/WX    TMP DP  RH WIND       PRES   REMARKS
RUIDOSO        FAIR      68  54  60 S7        30.25S

$$
NMZ527>531-220300-
NORTHEAST HIGHLANDS/NORTHEAST PLAINS

CITY           SKY/WX    TMP DP  RH WIND       PRES   REMARKS
LAS VEGAS      FAIR      78  46  32 S12       30.18R
RATON          FAIR      83  37  19 S15       30.11R
CLAYTON        FAIR      84  43  23 SE15      30.05R

$$
NMZ532>537-220300-
EASTCENTRAL PLAINS

CITY           SKY/WX    TMP DP  RH WIND       PRES   REMARKS
SANTA ROSA     MOCLDY    88  47  24 S14       30.01S
TUCUMCARI      FAIR      92  51  24 S17       29.95R
CANNON AFB     FAIR      86  54  32 SE15      30.02S
CLOVIS AIRPORT FAIR      86  56  35 SE16      30.03R

$$
NMZ028-029-538-220300-
SOUTHEAST PLAINS

CITY           SKY/WX    TMP DP  RH WIND       PRES   REMARKS
ROSWELL        FAIR      88  54  31 SW12      29.96R
ARTESIA        FAIR      84  59  42 SW10      29.99R
CARLSBAD       FAIR      86  63  45 S14G20    29.98R
HOBBS          FAIR      81  55  41 SE13      30.03S


$$




USA.gov is the U.S. government's official web portal to all federal, state and local government web resources and services.